Погода в Усть-Камчатске

Россия / Камчатский край     56°14′22″N   162°32′10″E
темп.,
°C
ветер,
м/с
пор.,
м/с
влажн.,
%
обл.,
%
осадки,
мм/ч
давл.,
гПа
погр.,
м
28 ноября, вс
вс2800:00−9с798198 0.6 1004468
03:00−10сз678399 0.1 1004335
06:00−12сз568510 0.1 1003242
09:00−14сз678910 0.0 1003165
12:00−12сз577890 0.0 1003187
15:00−10сз6889100 0.4 1001240
18:00−10зсз71097100 2.3 1002230
21:00−9зсз71097100 1.9 1002214
29 ноября, пн
пн2900:00−9сз7997100 3.4 1002214
03:00−9зсз81097100 0.9 1003215
06:00−9зсз71096100 1.4 1003218
09:00−9зсз71092100 0.5 1004242
12:00−9зсз71083100 1.1 1005254
15:00−8зсз6979100 0.2 1006233
18:00−9зсз6975100 0.3 1007175
21:00−9зсз5877100 0.0 1008163
30 ноября, вт
вт3000:00−9зсз5773100 0.0 1008167
03:00−8зсз4571100 0.0 1008157
06:00−10зсз3472100 0.0 1008122
09:00−10зсз2372100 0.0 1008111
12:00−8зсз2270100 0.0 1007114
15:00−8сз2271100 0.0 1006113
18:00−9сз3473100 0.0 1006123
21:00−8зсз4774100 0.0 1007187
1 декабря, ср
ср100:00−7сз71176100 0.0 1009365
03:00−7сз8156572 0.0 1012645
06:00−8сз817670 0.0 1014785
09:00−9зсз511610 0.0 1016391
12:00−7юз476128 0.0 1018584
15:00−8з33671 0.0 1019146
18:00−12сз2276100 0.0 102183
21:00−11ссз2278100 0.0 102188
2 декабря, чт
чт200:00−9с2276100 0.0 1020133
03:00−6юз1579100 0.1 1017298
06:00−2ю31099100 2.5 1012491
09:00+1ююв51098100 1.8 1005357
12:00+3ю152396100 2.1 999726
15:00+4ю182595100 0.8 994730
18:00+5ю202994100 1.3 988874
21:00+5ююв223193100 0.7 982939